BCS373 EBBR-EGNX

Flight info

Callsign BCS373
Flight time 1h 11m
Altitude 40000
Route DENUT L610 HEMEL
Aircraft A333/H-SDE3GHIJ2J3J5M1RVWXY/LB2D1

Departure

Time 2026-05-07 20:20
Airport Brussels Airport (EBBR)

Arrival

Time 2026-05-07 21:31
Airport East Midlands Airport (EGNX)
Time Latitude Longitude Altitude Speed Heading
2026-05-07 19:53 50.89924 4.46887 134 ft 0 kts 155°
2026-05-07 20:06 50.89940 4.46875 128 ft 3 kts 155°
2026-05-07 20:06 50.89958 4.46863 131 ft 3 kts 146°
2026-05-07 20:06 50.89972 4.46843 134 ft 3 kts 131°
2026-05-07 20:07 50.89982 4.46818 134 ft 3 kts 92°
2026-05-07 20:07 50.89982 4.46802 130 ft 0 kts 70°
2026-05-07 20:11 50.89982 4.46803 134 ft 1 kts 69°
2026-05-07 20:11 50.89988 4.46818 129 ft 3 kts 61°
2026-05-07 20:11 50.90005 4.46868 126 ft 7 kts 61°
2026-05-07 20:11 50.90032 4.46953 127 ft 10 kts 65°
2026-05-07 20:12 50.90067 4.47074 128 ft 14 kts 65°
2026-05-07 20:12 50.90111 4.47229 125 ft 17 kts 65°
2026-05-07 20:12 50.90170 4.47392 122 ft 18 kts 45°
2026-05-07 20:12 50.90252 4.47483 121 ft 15 kts 47°
2026-05-07 20:13 50.90290 4.47578 120 ft 16 kts 64°
2026-05-07 20:13 50.90341 4.47749 122 ft 17 kts 66°
2026-05-07 20:13 50.90392 4.47926 121 ft 18 kts 65°
2026-05-07 20:13 50.90448 4.48118 123 ft 20 kts 65°
2026-05-07 20:14 50.90488 4.48257 121 ft 11 kts 66°
2026-05-07 20:14 50.90523 4.48378 122 ft 11 kts 65°
2026-05-07 20:14 50.90534 4.48416 120 ft 0 kts 65°
2026-05-07 20:15 50.90535 4.48417 120 ft 1 kts 65°
2026-05-07 20:15 50.90541 4.48438 121 ft 4 kts 65°
2026-05-07 20:15 50.90555 4.48488 122 ft 6 kts 68°
2026-05-07 20:15 50.90557 4.48558 124 ft 7 kts 103°
2026-05-07 20:16 50.90538 4.48625 120 ft 8 kts 115°
2026-05-07 20:16 50.90534 4.48682 124 ft 3 kts 75°
2026-05-07 20:16 50.90544 4.48725 121 ft 6 kts 66°
2026-05-07 20:16 50.90568 4.48809 120 ft 11 kts 65°
2026-05-07 20:17 50.90609 4.48951 120 ft 19 kts 65°
2026-05-07 20:17 50.90672 4.49171 121 ft 23 kts 65°
2026-05-07 20:17 50.90741 4.49406 122 ft 23 kts 65°
2026-05-07 20:17 50.90777 4.49532 123 ft 11 kts 65°
2026-05-07 20:18 50.90812 4.49649 125 ft 13 kts 65°
2026-05-07 20:18 50.90849 4.49730 123 ft 5 kts 28°
2026-05-07 20:18 50.90889 4.49765 122 ft 8 kts 28°
2026-05-07 20:18 50.90946 4.49817 123 ft 11 kts 31°
2026-05-07 20:19 50.91020 4.49898 121 ft 14 kts 29°
2026-05-07 20:19 50.91112 4.49936 119 ft 11 kts 343°
2026-05-07 20:19 50.91120 4.49831 121 ft 19 kts 248°
2026-05-07 20:19 50.90978 4.49350 120 ft 83 kts 247°
2026-05-07 20:20 50.90647 4.48186 121 ft 147 kts 245°
2026-05-07 20:20 50.90141 4.46451 275 ft 194 kts 245°
2026-05-07 20:20 50.89563 4.44368 933 ft 212 kts 250°
2026-05-07 20:20 50.89202 4.42066 1981 ft 220 kts 263°
2026-05-07 20:21 50.89344 4.39738 3333 ft 191 kts 306°
2026-05-07 20:21 50.90243 4.38243 4443 ft 204 kts 320°
2026-05-07 20:21 50.91463 4.36661 4666 ft 247 kts 323°
2026-05-07 20:21 50.92843 4.34803 5127 ft 268 kts 311°
2026-05-07 20:22 50.93948 4.32399 6055 ft 271 kts 305°
2026-05-07 20:22 50.95078 4.30002 6727 ft 272 kts 306°
2026-05-07 20:22 50.96205 4.27627 7034 ft 274 kts 306°
2026-05-07 20:22 50.97352 4.25157 7085 ft 275 kts 305°
2026-05-07 20:23 50.98460 4.22727 7076 ft 276 kts 305°
2026-05-07 20:23 50.99571 4.20264 7080 ft 276 kts 305°
2026-05-07 20:23 51.00688 4.17772 7097 ft 275 kts 304°
2026-05-07 20:23 51.01797 4.15288 7491 ft 277 kts 304°
2026-05-07 20:24 51.02916 4.12775 8413 ft 279 kts 304°
2026-05-07 20:24 51.04037 4.10253 9480 ft 280 kts 304°
2026-05-07 20:24 51.05170 4.07700 10424 ft 286 kts 304°
2026-05-07 20:24 51.06355 4.05024 10858 ft 308 kts 304°
2026-05-07 20:25 51.07622 4.02160 11384 ft 323 kts 304°
2026-05-07 20:25 51.08931 3.99201 12138 ft 331 kts 304°
2026-05-07 20:25 51.10266 3.96182 12996 ft 335 kts 303°
2026-05-07 20:25 51.11615 3.93125 13855 ft 340 kts 303°
2026-05-07 20:26 51.12979 3.90032 14621 ft 344 kts 303°
2026-05-07 20:26 51.14358 3.86898 15401 ft 347 kts 303°
2026-05-07 20:26 51.15752 3.83730 16194 ft 350 kts 303°
2026-05-07 20:26 51.17155 3.80534 16984 ft 354 kts 303°
2026-05-07 20:27 51.18572 3.77302 17774 ft 357 kts 303°
2026-05-07 20:27 51.19999 3.74045 18520 ft 361 kts 303°
2026-05-07 20:27 51.21443 3.70746 19187 ft 364 kts 303°
2026-05-07 20:27 51.22843 3.67367 19844 ft 366 kts 298°
2026-05-07 20:28 51.23863 3.63653 20491 ft 367 kts 287°
2026-05-07 20:28 51.24579 3.59730 21172 ft 369 kts 283°
2026-05-07 20:28 51.25150 3.55729 21821 ft 371 kts 281°
2026-05-07 20:28 51.25655 3.51667 22463 ft 374 kts 279°
2026-05-07 20:29 51.26142 3.47574 23094 ft 377 kts 279°
2026-05-07 20:29 51.26638 3.43446 23701 ft 380 kts 280°
2026-05-07 20:29 51.27150 3.39285 24211 ft 383 kts 280°
2026-05-07 20:29 51.27673 3.35112 24717 ft 385 kts 280°
2026-05-07 20:30 51.28209 3.30895 25227 ft 388 kts 280°
2026-05-07 20:30 51.28751 3.26666 25727 ft 390 kts 280°
2026-05-07 20:30 51.29296 3.22408 26223 ft 393 kts 280°
2026-05-07 20:30 51.29846 3.18120 26719 ft 394 kts 280°
2026-05-07 20:31 51.30395 3.13821 27216 ft 396 kts 280°
2026-05-07 20:31 51.30945 3.09492 27669 ft 399 kts 280°
2026-05-07 20:31 51.31496 3.05142 28113 ft 401 kts 280°
2026-05-07 20:31 51.32050 3.00751 28589 ft 404 kts 280°
2026-05-07 20:32 51.32604 2.96343 29048 ft 406 kts 280°
2026-05-07 20:32 51.33161 2.91898 29464 ft 409 kts 280°
2026-05-07 20:32 51.33719 2.87432 29918 ft 411 kts 280°
2026-05-07 20:32 51.34278 2.82936 30320 ft 414 kts 280°
2026-05-07 20:33 51.34840 2.78406 30676 ft 416 kts 280°
2026-05-07 20:33 51.35404 2.73851 31031 ft 419 kts 280°
2026-05-07 20:33 51.35970 2.69267 31389 ft 421 kts 280°
2026-05-07 20:33 51.36538 2.64663 31745 ft 424 kts 280°
2026-05-07 20:34 51.37108 2.60032 32097 ft 426 kts 280°
2026-05-07 20:34 51.37680 2.55363 32469 ft 428 kts 279°
2026-05-07 20:34 51.38250 2.50701 32965 ft 426 kts 279°
2026-05-07 20:34 51.38816 2.46055 33486 ft 424 kts 279°
2026-05-07 20:35 51.39379 2.41418 33963 ft 423 kts 279°
2026-05-07 20:35 51.39938 2.36795 34357 ft 423 kts 279°
2026-05-07 20:35 51.40493 2.32182 34685 ft 423 kts 279°
2026-05-07 20:35 51.41049 2.27544 34999 ft 424 kts 279°
2026-05-07 20:36 51.41604 2.22901 35301 ft 425 kts 279°
2026-05-07 20:36 51.42159 2.18247 35617 ft 425 kts 279°
2026-05-07 20:36 51.42704 2.13650 35906 ft 426 kts 279°
2026-05-07 20:36 51.43257 2.08981 36197 ft 427 kts 279°
2026-05-07 20:37 51.43809 2.04304 36480 ft 428 kts 279°
2026-05-07 20:37 51.44364 1.99607 36761 ft 429 kts 279°
2026-05-07 20:37 51.44936 1.94910 37049 ft 430 kts 279°
2026-05-07 20:37 51.45518 1.90214 37333 ft 430 kts 279°
2026-05-07 20:38 51.46099 1.85499 37605 ft 431 kts 279°
2026-05-07 20:38 51.46662 1.80771 37877 ft 432 kts 279°
2026-05-07 20:38 51.47214 1.76036 38152 ft 432 kts 279°
2026-05-07 20:38 51.47758 1.71302 38418 ft 433 kts 278°
2026-05-07 20:39 51.48301 1.66548 38694 ft 433 kts 278°
2026-05-07 20:39 51.49383 1.57027 38230 ft 433 kts 278°
2026-05-07 20:39 51.49921 1.52283 37743 ft 430 kts 278°
2026-05-07 20:40 51.50453 1.47578 37243 ft 428 kts 278°
2026-05-07 20:40 51.50983 1.42878 36696 ft 429 kts 278°
2026-05-07 20:40 51.51514 1.38145 35939 ft 433 kts 278°
2026-05-07 20:40 51.52048 1.33365 35200 ft 436 kts 278°
2026-05-07 20:41 51.52583 1.28557 34485 ft 439 kts 278°
2026-05-07 20:41 51.53120 1.23719 33716 ft 441 kts 278°
2026-05-07 20:41 51.53657 1.18868 32890 ft 442 kts 278°
2026-05-07 20:41 51.54192 1.14009 32106 ft 443 kts 278°
2026-05-07 20:42 51.54727 1.09134 31326 ft 443 kts 278°
2026-05-07 20:42 51.55260 1.04258 30616 ft 442 kts 278°
2026-05-07 20:42 51.55786 0.99432 30206 ft 435 kts 278°
2026-05-07 20:42 51.56298 0.94724 30087 ft 421 kts 278°
2026-05-07 20:43 51.56795 0.90125 29953 ft 417 kts 278°
2026-05-07 20:43 51.57288 0.85539 29278 ft 416 kts 278°
2026-05-07 20:43 51.57775 0.80981 28744 ft 411 kts 278°
2026-05-07 20:43 51.58255 0.76476 28201 ft 407 kts 278°
2026-05-07 20:44 51.58730 0.72005 27642 ft 404 kts 278°
2026-05-07 20:44 51.59199 0.67566 27095 ft 401 kts 278°
2026-05-07 20:44 51.59664 0.63159 26556 ft 398 kts 278°
2026-05-07 20:44 51.60124 0.58785 26035 ft 395 kts 278°
2026-05-07 20:45 51.60580 0.54430 25513 ft 393 kts 278°
2026-05-07 20:45 51.61029 0.50120 25164 ft 389 kts 278°
2026-05-07 20:45 51.61475 0.45820 25108 ft 390 kts 277°
2026-05-07 20:45 51.61920 0.41509 25095 ft 391 kts 277°
2026-05-07 20:46 51.62365 0.37184 25083 ft 391 kts 277°
2026-05-07 20:46 51.62810 0.32859 25075 ft 392 kts 277°
2026-05-07 20:46 51.63251 0.28545 25072 ft 392 kts 277°
2026-05-07 20:46 51.63693 0.24221 25079 ft 392 kts 277°
2026-05-07 20:47 51.64132 0.19895 25071 ft 392 kts 277°
2026-05-07 20:47 51.64728 0.15613 25072 ft 393 kts 286°
2026-05-07 20:47 51.65711 0.11496 25077 ft 394 kts 291°
2026-05-07 20:47 51.66810 0.07445 25077 ft 395 kts 292°
2026-05-07 20:48 51.67935 0.03406 25074 ft 395 kts 292°
2026-05-07 20:48 51.69063 -0.00620 25074 ft 395 kts 292°
2026-05-07 20:48 51.70196 -0.04662 25066 ft 396 kts 292°
2026-05-07 20:48 51.71328 -0.08703 25069 ft 396 kts 292°
2026-05-07 20:49 51.72461 -0.12756 25072 ft 396 kts 292°
2026-05-07 20:49 51.73592 -0.16809 25074 ft 396 kts 292°
2026-05-07 20:49 51.74340 -0.19493 25072 ft 396 kts 292°
2026-05-07 20:49 51.75727 -0.24473 25073 ft 396 kts 292°
2026-05-07 20:50 51.76854 -0.28532 25086 ft 396 kts 291°
2026-05-07 20:50 51.77923 -0.32385 24887 ft 394 kts 291°
2026-05-07 20:50 51.79041 -0.36421 24344 ft 394 kts 292°
2026-05-07 20:50 51.80332 -0.40253 23849 ft 394 kts 303°
2026-05-07 20:51 51.82262 -0.43461 23339 ft 396 kts 321°
2026-05-07 20:51 51.84556 -0.45913 22787 ft 394 kts 326°
2026-05-07 20:51 51.86897 -0.48175 22261 ft 391 kts 327°
2026-05-07 20:51 51.89228 -0.50405 21716 ft 388 kts 327°
2026-05-07 20:52 51.91514 -0.52605 21177 ft 385 kts 327°
2026-05-07 20:52 51.93804 -0.54822 20664 ft 382 kts 327°
2026-05-07 20:52 51.96079 -0.57033 20148 ft 380 kts 327°
2026-05-07 20:52 51.98330 -0.59228 19635 ft 377 kts 327°
2026-05-07 20:53 52.00572 -0.61420 19128 ft 374 kts 327°
2026-05-07 20:53 52.02789 -0.63589 18545 ft 369 kts 327°
2026-05-07 20:53 52.04966 -0.65723 17700 ft 365 kts 327°
2026-05-07 20:53 52.07140 -0.67858 17159 ft 366 kts 327°
2026-05-07 20:54 52.09327 -0.70009 16939 ft 368 kts 327°
2026-05-07 20:54 52.11513 -0.72160 16642 ft 365 kts 327°
2026-05-07 20:54 52.13678 -0.74294 16269 ft 363 kts 327°
2026-05-07 20:54 52.15827 -0.76413 15941 ft 361 kts 327°
2026-05-07 20:55 52.17970 -0.78529 15594 ft 360 kts 327°
2026-05-07 20:55 52.20108 -0.80643 15243 ft 358 kts 327°
2026-05-07 20:55 52.22237 -0.82750 14901 ft 357 kts 327°
2026-05-07 20:55 52.24353 -0.84846 14557 ft 355 kts 327°
2026-05-07 20:56 52.26464 -0.86936 14219 ft 354 kts 327°
2026-05-07 20:56 52.28566 -0.89015 13888 ft 353 kts 327°
2026-05-07 20:56 52.30664 -0.91094 13513 ft 353 kts 327°
2026-05-07 20:56 52.32738 -0.93150 13264 ft 343 kts 327°
2026-05-07 20:57 52.34742 -0.95138 13002 ft 332 kts 327°
2026-05-07 20:57 52.36694 -0.97078 12688 ft 325 kts 327°
2026-05-07 20:57 52.38603 -0.98974 12375 ft 318 kts 328°
2026-05-07 20:57 52.40601 -1.00415 12128 ft 312 kts 345°
2026-05-07 20:58 52.42738 -1.00573 11803 ft 309 kts
2026-05-07 20:58 52.44826 -0.99828 11415 ft 307 kts 13°
2026-05-07 20:58 52.46188 -0.99219 11163 ft 305 kts 14°
2026-05-07 20:58 52.48208 -0.98292 10926 ft 298 kts 15°
2026-05-07 20:59 52.50181 -0.97394 10671 ft 292 kts 14°
2026-05-07 20:59 52.52125 -0.96520 10390 ft 287 kts 14°
2026-05-07 20:59 52.54035 -0.95669 10112 ft 283 kts 14°
2026-05-07 20:59 52.55927 -0.94830 9828 ft 279 kts 14°
2026-05-07 21:00 52.57802 -0.94127 9524 ft 274 kts
2026-05-07 21:00 52.59647 -0.94367 9336 ft 262 kts 339°
2026-05-07 21:00 52.61127 -0.95949 9086 ft 252 kts 309°
2026-05-07 21:00 52.61949 -0.98434 8726 ft 249 kts 283°
2026-05-07 21:01 52.61991 -1.01232 8467 ft 243 kts 257°
2026-05-07 21:01 52.61255 -1.03670 8165 ft 240 kts 226°
2026-05-07 21:01 52.59895 -1.05198 8031 ft 238 kts 202°
2026-05-07 21:01 52.58281 -1.05786 8031 ft 239 kts 187°
2026-05-07 21:02 52.56615 -1.06004 8030 ft 240 kts 185°
2026-05-07 21:02 52.54951 -1.06183 8029 ft 240 kts 185°
2026-05-07 21:02 52.53284 -1.06379 8029 ft 240 kts 186°
2026-05-07 21:02 52.51615 -1.06593 8029 ft 240 kts 186°
2026-05-07 21:03 52.49955 -1.06816 8031 ft 240 kts 185°
2026-05-07 21:03 52.48291 -1.06702 8020 ft 241 kts 163°
2026-05-07 21:03 52.46946 -1.05119 8026 ft 244 kts 126°
2026-05-07 21:03 52.46456 -1.02480 8033 ft 247 kts 88°
2026-05-07 21:04 52.47037 -0.99864 8034 ft 249 kts 50°
2026-05-07 21:04 52.48419 -0.98199 8047 ft 248 kts 24°
2026-05-07 21:04 52.50039 -0.97220 8044 ft 249 kts 14°
2026-05-07 21:04 52.51728 -0.96557 8043 ft 250 kts 10°
2026-05-07 21:05 52.53445 -0.96054 8043 ft 250 kts
2026-05-07 21:05 52.55160 -0.95646 8041 ft 249 kts
2026-05-07 21:05 52.56886 -0.95346 8039 ft 249 kts
2026-05-07 21:05 52.58618 -0.95223 8036 ft 248 kts 352°
2026-05-07 21:06 52.60225 -0.96073 8032 ft 243 kts 324°
2026-05-07 21:06 52.61328 -0.98109 8037 ft 240 kts 294°
2026-05-07 21:06 52.61671 -1.00751 8039 ft 237 kts 265°
2026-05-07 21:06 52.61200 -1.03311 8032 ft 235 kts 237°
2026-05-07 21:07 52.60042 -1.05176 8032 ft 236 kts 210°
2026-05-07 21:07 52.58477 -1.05962 8033 ft 238 kts 189°
2026-05-07 21:07 52.56817 -1.06189 8032 ft 240 kts 185°
2026-05-07 21:07 52.55164 -1.06329 8031 ft 242 kts 184°
2026-05-07 21:08 52.53477 -1.06478 8032 ft 244 kts 185°
2026-05-07 21:08 52.51780 -1.06643 8043 ft 245 kts 185°
2026-05-07 21:08 52.50076 -1.06806 8033 ft 246 kts 182°
2026-05-07 21:08 52.48389 -1.06310 8028 ft 250 kts 157°
2026-05-07 21:09 52.46937 -1.04730 8028 ft 253 kts 139°
2026-05-07 21:09 52.46010 -1.02291 8028 ft 257 kts 106°
2026-05-07 21:09 52.46042 -0.99429 8029 ft 253 kts 70°
2026-05-07 21:09 52.47071 -0.97175 8041 ft 249 kts 33°
2026-05-07 21:10 52.48670 -0.96179 8047 ft 247 kts
2026-05-07 21:10 52.50385 -0.95939 8044 ft 248 kts
2026-05-07 21:10 52.52116 -0.95806 8045 ft 250 kts
2026-05-07 21:10 52.53847 -0.95609 8042 ft 249 kts
2026-05-07 21:11 52.55576 -0.95384 8039 ft 249 kts
2026-05-07 21:11 52.57305 -0.95184 8039 ft 249 kts
2026-05-07 21:11 52.60549 -0.96443 8032 ft 242 kts 317°
2026-05-07 21:12 52.61490 -0.98682 8035 ft 239 kts 288°
2026-05-07 21:12 52.61641 -1.01363 8037 ft 237 kts 259°
2026-05-07 21:12 52.60995 -1.03814 8028 ft 235 kts 231°
2026-05-07 21:12 52.59717 -1.05450 8032 ft 236 kts 203°
2026-05-07 21:13 52.58107 -1.06037 8036 ft 239 kts 187°
2026-05-07 21:13 52.56445 -1.06225 8031 ft 240 kts 184°
2026-05-07 21:13 52.54777 -1.06363 8030 ft 240 kts 184°
2026-05-07 21:13 52.53108 -1.06513 8030 ft 240 kts 185°
2026-05-07 21:14 52.51440 -1.06678 8030 ft 240 kts 185°
2026-05-07 21:14 52.49771 -1.06800 8030 ft 241 kts 178°
2026-05-07 21:14 52.48228 -1.05827 8031 ft 243 kts 140°
2026-05-07 21:14 52.47357 -1.03489 8040 ft 246 kts 102°
2026-05-07 21:15 52.47523 -1.00733 8033 ft 248 kts 65°
2026-05-07 21:15 52.48668 -0.98671 8042 ft 248 kts 26°
2026-05-07 21:15 52.50318 -0.98153 8043 ft 244 kts 349°
2026-05-07 21:15 52.51869 -0.99114 8046 ft 243 kts 330°
2026-05-07 21:16 52.53364 -1.00437 8036 ft 245 kts 330°
2026-05-07 21:16 52.54940 -1.01481 8033 ft 247 kts 343°
2026-05-07 21:16 52.56642 -1.01920 8032 ft 249 kts 355°
2026-05-07 21:16 52.58377 -1.01945 8032 ft 249 kts 355°
2026-05-07 21:17 52.60074 -1.02422 8033 ft 247 kts 342°
2026-05-07 21:17 52.61703 -1.03303 7938 ft 246 kts 339°
2026-05-07 21:17 52.63319 -1.04219 7482 ft 245 kts 340°
2026-05-07 21:17 52.64996 -1.04746 7031 ft 249 kts 357°
2026-05-07 21:18 52.66738 -1.04664 6663 ft 251 kts
2026-05-07 21:18 52.68477 -1.04434 6352 ft 250 kts
2026-05-07 21:18 52.70211 -1.04182 5993 ft 249 kts
2026-05-07 21:18 52.71928 -1.03933 5498 ft 248 kts
2026-05-07 21:19 52.73640 -1.03687 5057 ft 245 kts
2026-05-07 21:19 52.75343 -1.03446 4505 ft 247 kts
2026-05-07 21:19 52.77045 -1.03205 4100 ft 242 kts
2026-05-07 21:19 52.78716 -1.02969 3997 ft 241 kts
2026-05-07 21:20 52.80387 -1.02736 3989 ft 241 kts
2026-05-07 21:20 52.82049 -1.02897 3991 ft 239 kts 342°
2026-05-07 21:20 52.83439 -1.04289 3993 ft 234 kts 309°
2026-05-07 21:20 52.84128 -1.06640 3993 ft 227 kts 276°
2026-05-07 21:21 52.84125 -1.09232 3934 ft 225 kts 262°
2026-05-07 21:21 52.83927 -1.11800 3880 ft 226 kts 259°
2026-05-07 21:21 52.83705 -1.14374 3811 ft 226 kts 259°
2026-05-07 21:21 52.83489 -1.16955 3727 ft 226 kts 260°
2026-05-07 21:22 52.83309 -1.19545 3649 ft 227 kts 263°
2026-05-07 21:22 52.83233 -1.22144 3592 ft 227 kts 265°
2026-05-07 21:22 52.83190 -1.24755 3518 ft 227 kts 266°
2026-05-07 21:22 52.83152 -1.27359 3453 ft 227 kts 266°
2026-05-07 21:23 52.83115 -1.29962 3374 ft 226 kts 266°
2026-05-07 21:23 52.83076 -1.32553 3294 ft 226 kts 266°
2026-05-07 21:23 52.83036 -1.35154 3230 ft 226 kts 266°
2026-05-07 21:23 52.82996 -1.37754 3163 ft 227 kts 266°
2026-05-07 21:24 52.82956 -1.40322 3087 ft 226 kts 266°
2026-05-07 21:24 52.82912 -1.42943 3004 ft 223 kts 265°
2026-05-07 21:24 52.82661 -1.45367 2942 ft 213 kts 245°
2026-05-07 21:24 52.81888 -1.47443 2859 ft 210 kts 230°
2026-05-07 21:25 52.80969 -1.49281 2804 ft 210 kts 227°
2026-05-07 21:25 52.80017 -1.51105 2716 ft 210 kts 227°
2026-05-07 21:25 52.79069 -1.52928 2635 ft 209 kts 227°
2026-05-07 21:25 52.78124 -1.54753 2569 ft 209 kts 227°
2026-05-07 21:26 52.77332 -1.56765 2489 ft 211 kts 245°
2026-05-07 21:26 52.77128 -1.59170 2415 ft 217 kts 275°
2026-05-07 21:26 52.77717 -1.61463 2335 ft 222 kts 307°
2026-05-07 21:26 52.78977 -1.62929 2259 ft 226 kts 341°
2026-05-07 21:27 52.80523 -1.63005 2181 ft 225 kts 20°
2026-05-07 21:27 52.81727 -1.61476 2109 ft 220 kts 58°
2026-05-07 21:27 52.82385 -1.59181 2044 ft 217 kts 74°
2026-05-07 21:27 52.82683 -1.56807 1992 ft 205 kts 90°
2026-05-07 21:28 52.82707 -1.54572 2010 ft 189 kts 92°
2026-05-07 21:28 52.82737 -1.52468 1985 ft 175 kts 92°
2026-05-07 21:28 52.82777 -1.50600 1976 ft 150 kts 92°
2026-05-07 21:28 52.82812 -1.49001 1974 ft 131 kts 93°
2026-05-07 21:29 52.82839 -1.47511 1826 ft 129 kts 92°
2026-05-07 21:29 52.82863 -1.46037 1654 ft 128 kts 92°
2026-05-07 21:29 52.82889 -1.44569 1548 ft 127 kts 93°
2026-05-07 21:29 52.82907 -1.43088 1303 ft 128 kts 93°
2026-05-07 21:30 52.82935 -1.41635 1066 ft 125 kts 91°
2026-05-07 21:30 52.82966 -1.40215 826 ft 122 kts 91°
2026-05-07 21:30 52.82999 -1.38823 675 ft 122 kts 90°
2026-05-07 21:30 52.83006 -1.37428 543 ft 121 kts 91°
2026-05-07 21:31 52.83043 -1.36036 420 ft 121 kts 90°
2026-05-07 21:31 52.83076 -1.34647 332 ft 122 kts 90°
2026-05-07 21:31 52.83089 -1.33373 311 ft 88 kts 89°
2026-05-07 21:31 52.83102 -1.32696 306 ft 30 kts 87°
2026-05-07 21:32 52.83106 -1.32530 308 ft 14 kts 87°
2026-05-07 21:32 52.83109 -1.32346 307 ft 17 kts 90°
2026-05-07 21:32 52.83112 -1.32157 311 ft 16 kts 88°
2026-05-07 21:32 52.83116 -1.31953 313 ft 19 kts 88°
2026-05-07 21:33 52.83120 -1.31716 315 ft 21 kts 86°
2026-05-07 21:33 52.83129 -1.31459 313 ft 24 kts 86°
2026-05-07 21:33 52.83065 -1.31317 309 ft 15 kts 171°
2026-05-07 21:33 52.82963 -1.31355 308 ft 16 kts 233°
2026-05-07 21:34 52.82953 -1.31456 305 ft 5 kts 269°
2026-05-07 21:34 52.82953 -1.31534 305 ft 9 kts 269°
2026-05-07 21:34 52.82925 -1.31694 309 ft 21 kts 225°
2026-05-07 21:34 52.82879 -1.31711 306 ft 0 kts 156°
2026-05-07 21:35 52.82866 -1.31657 308 ft 6 kts 105°
2026-05-07 21:35 52.82854 -1.31627 308 ft 4 kts 130°
2026-05-07 21:35 52.82822 -1.31569 309 ft 0 kts 133°
2026-05-07 21:35 52.82822 -1.31568 309 ft 0 kts 133°